Wind_Speed
101 117 128 168 157 148 143 139 134 132 125 118 115 109 104 99 96 92 89 88 86 82 85 82 80 78 76 77 76 75 72 71 72 72 73 71 70 71 72 72 75 77 80 83 88 91 90 92 93 98 100 101 102 103
92 108 120 148 159 158 150 144 141 133 130 124 118 114 109 105 101 99 95 93 89 86 85 86 83 81 80 80 78 78 76 77 75 75 76 76 77 76 77 77 81 83 87 90 92 92 96 95 98 102 101 100 104 105
83 100 111 123 152 158 155 147 140 138 130 124 122 119 114 110 107 101 98 102 96 89 91 89 84 84 85 84 82 82 81 84 81 81 81 81 82 83 84 83 85 86 89 92 95 96 98 98 100 102 103 108 109 113
77 89 101 110 127 167 156 151 143 138 134 132 124 121 118 114 110 107 102 101 103 97 94 89 91 91 89 89 88 86 85 87 88 86 86 87 88 86 87 91 88 89 94 97 99 101 100 101 104 106 107 110 113 116
68 81 93 102 113 130 165 160 153 144 137 132 127 123 119 119 116 113 108 106 106 103 97 94 97 94 95 94 94 94 94 93 93 93 93 92 91 94 92 91 89 95 99 100 101 101 103 104 106 109 112 115 118 121
61 74 86 93 105 115 137 165 155 150 142 134 131 128 123 121 118 117 115 110 111 108 105 100 97 98 98 97 98 97 97 97 97 100 99 98 96 99 99 95 94 99 101 102 104 106 109 109 110 114 116 119 122 125
54 64 77 85 91 104 116 139 161 159 148 139 136 132 128 126 121 122 121 113 111 110 112 111 108 101 101 101 101 101 101 102 101 103 104 104 102 105 103 100 103 106 107 109 108 111 114 115 116 118 121 122 124 126
49 55 65 77 89 95 104 119 138 161 153 147 141 139 135 131 127 125 124 118 116 115 116 118 115 109 107 105 106 106 104 106 108 107 107 107 109 108 108 109 112 111 113 112 112 113 116 117 120 121 122 125 126 130
46 51 58 68 80 91 98 106 119 142 159 147 141 142 139 138 133 128 125 123 121 121 122 124 120 118 115 110 108 110 112 112 112 112 112 113 112 112 112 114 116 116 116 116 116 119 120 122 122 124 127 129 131 134
44 48 54 62 72 84 93 99 110 125 138 156 153 150 146 140 136 135 131 127 127 127 127 128 122 120 118 115 114 115 117 116 117 116 116 117 114 115 115 119 121 121 120 119 121 121 123 124 125 128 129 133 138 138
41 45 50 56 64 74 85 95 101 109 119 130 143 155 151 142 139 139 135 133 133 132 132 129 125 123 120 119 117 118 119 120 121 117 117 118 115 118 122 122 122 123 124 124 124 125 125 128 130 130 133 135 141 144
34 39 46 51 61 69 78 87 94 99 106 118 134 145 148 146 144 140 138 136 135 134 132 126 123 125 127 126 124 123 123 124 126 124 123 122 123 125 127 127 127 128 129 130 129 129 130 131 133 136 140 143 147 148
30 35 41 48 56 65 72 79 88 94 100 110 128 137 147 146 145 144 140 138 136 133 134 132 128 129 131 130 129 130 131 130 130 130 128 126 129 131 130 130 131 133 132 134 135 137 140 141 140 141 144 149 144 141
29 33 38 44 51 58 66 75 83 87 92 99 110 126 138 145 149 146 143 141 140 137 134 132 132 134 133 134 135 134 135 136 137 134 134 136 136 136 136 136 135 136 138 141 141 140 144 144 146 147 150 147 142 142
26 30 35 40 46 51 58 66 75 83 88 91 96 109 123 130 135 141 146 150 148 144 143 142 141 140 139 140 139 139 140 140 140 142 142 142 141 140 140 140 143 148 148 149 150 151 150 150 145 145 143 137 131 125
23 26 30 36 41 47 55 62 68 74 81 86 89 91 98 113 128 135 139 141 143 147 149 148 146 144 146 145 145 143 143 144 145 146 145 146 148 150 150 150 153 153 154 153 152 150 147 144 143 136 127 125 121 115
17 21 26 32 38 44 50 55 59 64 68 72 77 82 87 95 107 118 124 131 137 139 139 140 140 141 141 144 146 148 146 145 147 149 150 150 151 152 154 155 154 150 147 147 146 142 138 133 127 121 117 117 114 110
16 17 20 27 34 38 43 47 53 56 59 62 65 71 76 79 85 94 104 112 116 120 124 131 135 140 143 144 147 148 148 148 151 152 151 150 149 150 148 146 143 140 139 134 132 127 124 122 118 114 113 110 108 105
14 17 20 23 28 32 38 41 45 48 51 53 56 59 62 66 70 74 78 85 94 102 112 122 126 130 132 135 139 142 143 144 145 145 142 138 137 138 137 134 130 127 124 123 122 119 117 113 112 110 107 104 100 97
10 13 16 20 23 27 31 35 38 42 44 47 49 52 53 56 58 62 66 70 75 81 89 98 105 112 116 118 119 120 123 125 126 126 127 129 128 126 124 122 122 120 118 116 113 111 108 106 104 101 98 95 92 88
10 10 12 14 18 22 27 29 32 35 36 38 40 42 44 47 52 57 64 69 75 82 86 90 93 95 96 98 100 101 103 106 108 111 112 112 112 112 112 111 110 109 107 106 104 101 98 96 94 91 88 85 81 79
9 10 11 12 15 19 21 24 27 30 32 34 36 39 42 46 51 56 59 64 67 69 71 75 78 80 83 86 88 91 93 95 97 98 99 100 100 100 100 99 98 97 95 93 92 90 88 86 83 80 77 76 75 72
8 8 9 11 12 14 17 19 22 25 27 30 33 36 39 42 46 48 52 55 57 60 63 65 67 69 72 74 76 78 79 81 82 83 85 86 86 86 87 87 85 85 84 82 81 79 77 75 74 73 71 69 68 66
8 9 10 11 13 15 17 19 21 23 26 27 30 32 34 37 39 43 46 48 51 53 55 57 59 61 63 64 66 68 69 71 72 73 74 75 76 76 76 76 75 74 73 71 71 71 70 68 67 66 65 63 60 59
10 10 11 12 14 15 17 18 19 21 22 24 27 29 30 32 36 39 40 42 44 47 49 51 53 55 56 59 60 62 63 64 65 65 65 66 66 66 66 66 66 66 66 66 65 64 63 62 60 59 58 57 57 57
12 12 13 13 14 15 17 18 20 21 22 24 24 26 27 29 31 34 34 36 38 40 41 43 44 46 48 50 51 52 53 55 56 57 58 59 59 59 60 60 60 60 60 59 58 57 56 56 55 55 56 56 57 58
15 15 15 16 16 17 17 18 19 20 22 23 24 26 27 29 30 32 33 34 36 37 39 40 42 43 44 46 47 48 49 50 51 52 52 53 53 53 53 53 54 53 53 53 53 53 54 55 55 56 57 57 57 56
14 14 14 15 16 17 17 18 19 20 21 23 24 25 26 27 29 30 31 32 33 34 35 37 38 39 40 41 42 43 43 45 45 46 47 47 48 49 50 50 51 51 52 53 54 55 56 56 56 54 53 52 50 48
14 14 14 14 14 14 15 16 16 17 17 19 20 21 22 24 25 26 28 28 29 30 32 33 34 36 37 38 39 40 41 42 44 45 46 47 48 49 50 51 52 53 53 53 52 51 51 50 48 47 46 45 44 43
15 15 16 16 16 17 17 18 18 19 20 21 22 23 24 26 27 28 29 30 31 33 33 35 36 37 38 39 40 41 43 44 45 46 47 48 48 48 48 47 47 46 45 45 45 44 43 43 42 42 42 41 40 39
13 13 13 14 14 15 16 17 18 20 21 22 23 25 26 27 27 28 29 30 31 33 34 35 36 38 39 39 40 40 40 40 40 40 40 40 40 39 40 39 39 40 40 40 40 40 39 39 39 39 38 38 37 36
15 16 16 17 18 19 19 20 21 22 23 24 25 25 26 27 28 30 30 31 31 32 32 32 32 32 33 33 34 34 34 34 34 35 35 35 35 36 37 36 36 37 37 36 36 36 36 35 35 35 34 35 34 34
20 20 20 21 21 22 22 23 23 23 24 24 24 25 25 25 25 25 25 25 26 27 27 28 28 29 30 30 31 31 31 31 31 32 32 32 32 32 33 34 33 33 33 33 33 33 32 32 32 32 31 31 31 31
Wind_Direction
227 228 228 219 224 221 223 225 226 228 230 232 233 235 238 240 241 242 243 244 246 248 252 255 256 258 259 261 264 266 268 270 272 275 276 278 281 283 285 287 288 290 292 292 294 296 299 301 302 301 303 305 306 308
227 225 226 222 221 221 221 223 224 226 228 230 232 234 236 238 240 242 242 244 244 247 251 253 255 258 260 262 263 263 266 268 271 273 275 278 281 283 283 285 287 289 291 293 293 297 298 300 301 302 304 307 309 309
228 226 225 224 222 221 220 222 223 224 226 229 232 234 235 237 239 240 242 244 245 246 249 252 255 257 258 261 262 265 266 269 271 273 275 279 282 282 283 284 285 289 291 292 293 295 297 299 300 303 304 306 307 308
229 228 227 225 223 218 221 220 222 223 225 226 229 232 235 236 238 239 241 246 246 246 248 251 254 256 258 260 262 264 266 269 271 274 276 279 280 282 283 284 287 288 288 291 292 294 296 299 302 304 305 307 307 309
231 227 227 225 223 222 221 221 221 222 224 225 226 230 233 236 238 240 241 242 247 248 249 249 253 255 257 260 261 264 267 269 271 272 275 276 279 281 283 284 286 286 287 290 292 294 296 298 301 304 304 305 308 310
233 229 226 227 224 223 221 221 221 224 221 224 227 230 232 235 238 240 241 242 245 249 250 251 252 255 258 260 263 264 267 269 271 273 275 276 278 279 281 283 286 286 287 289 292 293 296 298 300 302 304 306 307 309
236 230 227 226 226 224 222 222 223 221 223 225 227 230 232 234 236 240 241 243 246 249 252 252 249 251 255 259 262 264 266 269 271 273 276 277 279 280 282 285 286 286 287 289 291 294 296 299 301 302 304 305 307 308
240 234 228 225 225 223 223 222 223 220 222 224 225 228 231 233 235 239 241 241 243 247 250 253 255 253 252 255 258 262 265 267 269 272 275 277 278 281 284 285 286 287 290 291 292 294 297 299 299 300 302 305 305 307
241 235 229 225 223 222 221 222 222 222 221 223 225 227 229 232 234 236 240 242 243 245 247 250 253 255 258 256 257 261 263 265 268 271 273 275 277 280 281 283 284 286 288 290 292 293 294 297 298 299 302 304 306 308
242 235 230 226 222 221 221 221 222 221 223 223 224 227 228 230 233 235 237 241 243 245 248 250 252 255 257 260 260 261 262 265 266 267 270 272 276 277 278 279 282 284 286 288 289 290 293 296 299 301 302 303 305 307
240 234 228 225 222 221 222 222 223 223 223 221 225 224 227 228 231 234 236 239 242 244 247 250 253 254 256 259 261 263 265 266 267 269 270 272 274 275 277 278 281 284 287 288 290 293 295 296 298 299 301 303 305 307
238 232 227 222 220 220 220 222 222 223 223 222 223 223 225 228 230 234 236 239 242 245 248 250 252 256 258 259 260 263 265 267 268 270 272 275 276 276 279 282 284 285 287 290 292 293 295 296 297 299 302 303 304 305
237 231 226 223 220 220 220 220 221 222 223 223 222 223 225 227 229 233 235 239 241 245 248 249 251 253 255 257 259 262 264 265 267 270 273 275 276 278 280 282 285 287 290 292 292 294 295 296 297 301 303 303 305 305
238 231 225 221 221 220 219 220 221 222 223 224 224 225 227 227 230 233 233 236 240 242 244 247 249 252 255 258 260 263 265 267 270 272 273 274 276 278 281 283 286 287 288 291 292 294 295 296 298 300 301 303 302 302
241 233 226 221 219 219 221 222 222 223 223 225 227 227 227 230 231 232 235 237 238 240 243 245 248 250 252 255 258 261 264 266 267 269 271 274 277 278 280 282 283 286 287 289 291 293 294 298 298 298 299 299 301 303
244 236 230 225 221 219 220 222 223 224 226 226 228 230 230 231 233 233 234 237 239 241 243 247 249 251 254 256 258 260 262 264 267 269 272 274 276 277 279 280 283 286 288 290 292 293 295 296 297 296 298 299 301 303
253 240 231 226 223 222 223 224 225 226 228 230 231 232 232 233 234 237 238 238 240 242 244 246 248 251 254 256 259 261 263 265 267 268 271 273 274 276 279 281 284 286 287 290 292 292 293 294 294 296 299 299 301 302
251 243 236 231 228 226 226 226 227 227 228 230 232 233 234 235 236 238 240 242 243 245 247 249 251 253 255 256 258 260 262 264 266 268 270 272 275 278 281 282 284 286 286 286 288 290 292 293 295 298 298 299 300 301
259 243 234 231 229 227 227 227 228 229 231 231 233 235 235 235 235 237 240 242 245 247 249 251 253 254 255 256 257 260 262 265 267 269 271 274 276 278 280 281 282 284 286 288 289 291 292 294 295 296 296 298 299 301
254 244 239 236 232 229 230 230 232 235 235 235 236 237 237 237 238 238 239 241 243 246 248 250 252 254 256 258 258 260 262 264 266 268 270 272 274 276 278 280 282 283 285 287 289 290 291 292 293 295 296 297 299 300
265 254 245 239 235 233 233 233 233 235 236 236 236 236 235 233 233 234 235 237 239 241 243 245 248 250 253 256 259 261 263 265 267 268 270 272 274 276 278 280 283 284 285 286 288 289 290 291 292 294 296 297 297 297
285 271 260 249 242 240 239 239 241 242 242 240 239 239 237 237 238 239 241 244 246 249 251 252 253 255 257 259 261 263 265 266 268 270 272 274 276 277 279 280 282 283 284 285 286 288 290 292 293 294 294 294 295 296
301 289 273 260 253 249 246 244 243 243 244 243 243 243 244 243 244 246 248 251 253 254 255 257 258 260 261 262 264 265 267 268 270 271 272 273 275 276 278 280 281 283 285 286 288 288 289 290 290 291 293 294 295 296
299 285 269 258 252 247 245 243 244 245 246 247 249 250 251 252 252 253 254 256 257 259 261 262 263 264 265 266 268 269 270 271 273 274 275 277 278 279 280 282 283 284 285 285 286 287 288 289 290 291 292 294 294 295
293 284 275 271 268 266 265 264 264 262 260 259 257 257 257 257 257 257 259 260 261 262 262 263 265 266 266 267 269 270 272 273 274 275 276 277 278 279 280 281 282 283 284 285 286 287 288 289 290 291 292 292 293 294
293 288 284 280 275 272 271 271 269 268 268 269 269 267 266 266 266 266 267 267 268 268 268 268 269 270 271 272 273 274 274 275 276 276 277 278 279 280 281 282 282 283 284 285 286 287 289 289 290 290 292 293 296 297
289 286 284 283 281 278 275 273 271 271 271 270 270 270 271 271 272 273 272 272 272 272 273 273 273 273 273 273 273 274 275 276 276 277 278 279 279 280 282 283 284 285 286 287 288 288 289 291 293 293 294 294 295 295
302 298 294 288 287 285 283 281 278 277 276 276 274 273 273 273 272 273 273 273 273 273 273 273 274 274 275 276 277 278 278 279 280 281 282 283 284 285 285 286 287 288 289 290 291 291 292 292 292 292 293 293 293 294
315 310 306 304 299 296 294 291 288 284 281 279 278 277 276 275 275 276 276 277 278 278 279 280 281 282 282 282 282 283 283 284 285 286 286 286 287 287 288 289 289 290 290 290 290 290 290 291 292 292 292 292 293 294
312 309 307 306 303 302 299 298 295 293 292 291 290 290 290 289 289 288 288 288 287 287 287 286 286 286 285 285 285 285 286 286 286 285 286 286 287 288 289 289 290 290 291 291 291 291 293 293 293 293 293 294 294 294
304 301 299 297 294 291 288 286 285 284 282 282 282 282 283 284 285 286 285 285 285 284 284 284 284 285 286 286 286 286 287 287 288 288 288 289 290 290 291 293 294 293 293 294 294 295 294 294 295 295 295 295 296 296
301 299 299 297 295 294 295 294 295 295 294 293 292 291 292 292 292 291 291 291 291 290 291 290 290 289 289 289 290 290 291 292 293 294 295 295 296 295 295 296 296 296 296 297 297 297 297 298 298 299 300 300 300 300
303 302 301 301 301 301 300 300 300 299 298 299 299 299 299 299 299 299 298 298 298 297 296 297 297 297 297 297 297 297 297 297 297 298 298 299 299 300 300 300 301 301 301 302 302 303 303 303 303 304 304 304 303 303
Height
10229 10246 10265 10298 10322 10350 10377 10398 10420 10437 10453 10469 10484 10498 10509 10520 10530 10543 10548 10554 10567 10576 10571 10580 10583 10586 10589 10590 10593 10590 10591 10592 10589 10590 10588 10587 10591 10586 10585 10579 10572 10565 10559 10553 10544 10536 10537 10529 10522 10509 10502 10494 10482 10470
10203 10217 10235 10259 10289 10317 10341 10363 10386 10412 10428 10444 10460 10473 10485 10497 10507 10519 10531 10532 10542 10555 10559 10556 10565 10569 10570 10570 10574 10572 10574 10571 10571 10571 10570 10572 10571 10571 10565 10564 10555 10549 10541 10533 10524 10522 10511 10510 10500 10489 10480 10472 10459 10450
10179 10193 10208 10229 10256 10282 10306 10333 10358 10381 10406 10421 10436 10448 10461 10473 10484 10498 10506 10504 10520 10535 10532 10540 10549 10546 10548 10550 10553 10555 10556 10550 10555 10551 10550 10550 10552 10550 10547 10547 10539 10534 10525 10515 10505 10502 10495 10488 10479 10468 10460 10450 10440 10428
10158 10169 10183 10201 10220 10248 10272 10305 10329 10354 10378 10398 10413 10425 10437 10450 10463 10471 10484 10489 10490 10507 10513 10523 10522 10525 10525 10527 10532 10535 10535 10532 10531 10532 10533 10532 10528 10531 10530 10522 10524 10517 10502 10494 10490 10482 10475 10467 10459 10449 10439 10429 10418 10405
10139 10149 10161 10177 10196 10217 10244 10273 10302 10325 10349 10371 10391 10404 10415 10427 10440 10448 10457 10466 10467 10479 10496 10501 10493 10502 10505 10507 10509 10513 10513 10513 10510 10509 10511 10511 10510 10503 10505 10507 10508 10491 10483 10475 10469 10462 10453 10447 10439 10430 10420 10408 10398 10385
10122 10131 10142 10155 10174 10193 10214 10244 10270 10295 10322 10345 10367 10382 10394 10408 10418 10424 10427 10442 10446 10455 10462 10475 10482 10480 10482 10487 10489 10491 10492 10491 10488 10486 10486 10485 10489 10482 10480 10487 10483 10465 10458 10455 10449 10441 10433 10426 10418 10408 10398 10386 10375 10363
10107 10115 10125 10138 10152 10171 10192 10211 10238 10271 10295 10321 10341 10357 10371 10385 10395 10395 10405 10424 10433 10436 10431 10436 10451 10464 10466 10465 10464 10467 10468 10467 10464 10462 10461 10462 10463 10457 10460 10462 10451 10442 10439 10433 10427 10420 10412 10402 10394 10385 10375 10365 10354 10341
10092 10099 10109 10121 10133 10149 10168 10187 10211 10240 10267 10293 10309 10330 10345 10357 10368 10374 10383 10397 10405 10408 10408 10405 10414 10434 10447 10449 10446 10446 10446 10445 10442 10439 10440 10439 10436 10436 10440 10433 10422 10419 10415 10409 10404 10396 10390 10382 10374 10364 10353 10344 10332 10319
10078 10085 10093 10104 10118 10134 10150 10169 10187 10208 10236 10259 10285 10302 10317 10330 10344 10355 10361 10371 10379 10380 10379 10381 10394 10405 10410 10426 10430 10429 10425 10422 10420 10419 10418 10416 10417 10418 10414 10406 10400 10396 10391 10387 10382 10376 10368 10362 10353 10342 10332 10321 10310 10297
10064 10070 10078 10087 10102 10117 10133 10150 10166 10181 10206 10231 10256 10275 10290 10307 10318 10333 10337 10342 10346 10349 10350 10358 10374 10383 10391 10396 10398 10401 10402 10402 10399 10400 10398 10397 10399 10391 10389 10385 10378 10376 10373 10368 10362 10357 10351 10342 10331 10321 10309 10299 10288 10276
10052 10058 10066 10076 10088 10101 10115 10127 10142 10159 10181 10204 10227 10245 10260 10281 10292 10302 10310 10314 10318 10324 10332 10343 10353 10362 10365 10370 10371 10366 10368 10370 10370 10374 10374 10376 10377 10366 10360 10359 10357 10353 10347 10342 10339 10334 10327 10317 10307 10298 10287 10277 10265 10252
10043 10048 10056 10065 10074 10085 10096 10109 10125 10143 10163 10182 10199 10211 10235 10252 10264 10272 10280 10288 10294 10302 10313 10324 10330 10333 10338 10340 10340 10341 10340 10341 10340 10347 10344 10345 10342 10334 10330 10331 10329 10324 10320 10316 10313 10307 10300 10291 10283 10274 10264 10253 10239 10226
10036 10041 10047 10055 10064 10073 10084 10097 10108 10122 10137 10153 10171 10189 10212 10220 10237 10248 10255 10266 10276 10285 10292 10302 10306 10307 10308 10312 10314 10316 10314 10316 10319 10319 10320 10317 10307 10304 10306 10303 10301 10296 10293 10289 10284 10279 10272 10265 10257 10248 10237 10225 10212 10198
10031 10035 10040 10047 10055 10064 10074 10083 10094 10108 10122 10137 10154 10172 10186 10197 10216 10228 10236 10246 10252 10260 10267 10274 10279 10283 10284 10288 10288 10290 10289 10292 10293 10294 10291 10284 10282 10281 10279 10277 10274 10270 10266 10262 10257 10252 10245 10236 10228 10220 10210 10198 10185 10174
10025 10029 10034 10040 10047 10057 10065 10074 10083 10095 10107 10122 10135 10151 10169 10179 10194 10204 10210 10219 10227 10232 10241 10247 10252 10257 10261 10264 10268 10266 10264 10263 10266 10262 10262 10261 10258 10255 10252 10249 10247 10243 10240 10236 10232 10226 10218 10210 10201 10192 10181 10171 10160 10148
10020 10025 10030 10035 10042 10048 10053 10060 10069 10082 10094 10107 10121 10136 10151 10162 10168 10178 10187 10195 10203 10211 10219 10224 10228 10233 10237 10240 10241 10239 10239 10239 10239 10237 10235 10234 10231 10228 10226 10225 10222 10218 10213 10209 10206 10199 10191 10182 10172 10163 10152 10143 10131 10122
10018 10021 10025 10031 10036 10041 10047 10055 10065 10074 10085 10097 10109 10121 10132 10143 10152 10158 10167 10178 10185 10193 10199 10204 10208 10210 10216 10215 10214 10214 10215 10214 10212 10210 10209 10207 10205 10203 10202 10199 10197 10193 10187 10179 10176 10171 10163 10153 10144 10134 10125 10116 10106 10097
10015 10019 10023 10026 10030 10035 10041 10048 10056 10065 10074 10084 10094 10103 10113 10126 10136 10146 10152 10161 10169 10173 10180 10186 10191 10190 10191 10191 10189 10188 10188 10187 10184 10183 10183 10182 10181 10180 10177 10174 10170 10163 10160 10153 10147 10140 10132 10125 10116 10108 10098 10091 10082 10074
10015 10017 10019 10022 10027 10032 10037 10043 10050 10057 10065 10073 10079 10088 10098 10107 10118 10127 10136 10143 10150 10156 10159 10161 10162 10161 10163 10163 10160 10159 10159 10158 10157 10157 10158 10158 10155 10152 10150 10147 10142 10136 10130 10125 10118 10112 10105 10098 10091 10082 10074 10067 10060 10051
10015 10017 10019 10021 10025 10030 10034 10039 10044 10050 10056 10062 10069 10075 10084 10094 10102 10110 10117 10121 10125 10128 10129 10128 10128 10129 10129 10128 10129 10132 10133 10133 10134 10134 10133 10132 10130 10127 10124 10119 10114 10109 10104 10099 10092 10086 10079 10072 10066 10059 10052 10044 10036 10029
10015 10016 10018 10021 10023 10027 10030 10034 10038 10042 10047 10053 10059 10065 10072 10077 10081 10085 10088 10090 10091 10090 10092 10094 10097 10099 10101 10104 10106 10107 10107 10107 10106 10105 10104 10103 10100 10097 10094 10091 10087 10082 10077 10071 10066 10060 10054 10049 10042 10036 10029 10022 10015 10008
10015 10016 10017 10018 10020 10023 10026 10030 10033 10036 10040 10044 10048 10052 10057 10060 10062 10064 10068 10069 10071 10075 10079 10079 10080 10082 10083 10083 10084 10084 10084 10083 10082 10081 10079 10077 10074 10071 10067 10064 10061 10056 10051 10046 10041 10036 10031 10025 10019 10013 10006 10000 9994 9988
10015 10016 10016 10017 10019 10021 10023 10025 10027 10029 10032 10035 10037 10040 10043 10046 10049 10052 10053 10054 10057 10058 10059 10060 10061 10062 10063 10063 10063 10062 10061 10060 10059 10057 10055 10052 10050 10046 10043 10040 10036 10032 10028 10023 10018 10013 10008 10002 9997 9991 9986 9980 9975 9970
10014 10014 10014 10015 10015 10016 10017 10019 10021 10022 10024 10027 10029 10031 10033 10035 10037 10037 10038 10040 10041 10042 10043 10044 10044 10044 10043 10042 10042 10041 10039 10038 10036 10034 10032 10029 10027 10024 10021 10018 10014 10010 10005 10001 9996 9991 9986 9981 9976 9971 9967 9962 9957 9952
10014 10013 10013 10012 10012 10012 10013 10014 10015 10016 10018 10019 10020 10021 10023 10024 10025 10025 10027 10028 10028 10028 10028 10027 10027 10026 10025 10024 10022 10021 10020 10018 10017 10015 10012 10009 10007 10004 10000 9996 9992 9989 9984 9980 9976 9971 9966 9962 9958 9954 9949 9944 9939 9934
10012 10012 10011 10011 10010 10010 10010 10010 10010 10010 10011 10011 10012 10013 10013 10013 10014 10013 10014 10014 10014 10014 10013 10012 10011 10010 10009 10007 10006 10004 10002 10000 9998 9996 9993 9990 9987 9984 9980 9977 9973 9969 9965 9961 9957 9952 9948 9944 9940 9935 9931 9926 9921 9916
10010 10009 10008 10007 10007 10007 10007 10006 10006 10006 10006 10005 10005 10005 10004 10004 10004 10003 10003 10002 10002 10001 10000 9999 9997 9996 9994 9992 9990 9988 9986 9984 9981 9979 9975 9972 9969 9965 9962 9958 9954 9951 9947 9943 9938 9934 9930 9926 9921 9917 9912 9908 9904 9899
10007 10005 10004 10004 10003 10002 10001 10001 10000 9999 9999 9998 9997 9996 9996 9995 9994 9994 9993 9992 9990 9989 9987 9985 9983 9981 9980 9977 9975 9972 9970 9967 9964 9961 9958 9955 9952 9949 9945 9941 9937 9933 9929 9925 9920 9916 9912 9908 9904 9900 9896 9892 9888 9884
10002 10001 10000 9999 9998 9997 9996 9995 9994 9993 9992 9991 9990 9988 9987 9986 9985 9983 9982 9980 9978 9976 9974 9972 9970 9968 9966 9964 9961 9959 9956 9953 9949 9946 9943 9939 9936 9932 9928 9924 9920 9916 9912 9908 9904 9900 9896 9892 9888 9884 9880 9876 9872 9868
10000 9998 9997 9995 9994 9992 9991 9990 9988 9986 9985 9983 9982 9980 9978 9977 9975 9973 9972 9970 9968 9966 9963 9961 9959 9956 9953 9950 9947 9944 9940 9937 9934 9931 9928 9924 9920 9916 9912 9908 9904 9901 9897 9893 9888 9885 9881 9877 9873 9869 9865 9861 9858 9854
9998 9996 9994 9992 9990 9988 9986 9984 9983 9981 9980 9978 9976 9974 9972 9970 9968 9966 9964 9961 9958 9955 9952 9949 9946 9943 9940 9937 9933 9930 9927 9924 9920 9917 9913 9909 9906 9902 9897 9894 9891 9886 9882 9879 9875 9871 9867 9863 9860 9856 9852 9848 9844 9841
9994 9991 9989 9987 9985 9983 9981 9980 9978 9976 9974 9971 9969 9967 9964 9962 9959 9956 9953 9950 9947 9944 9940 9937 9934 9931 9928 9924 9921 9917 9914 9910 9907 9903 9899 9895 9892 9887 9883 9881 9877 9872 9869 9865 9862 9858 9854 9850 9846 9843 9839 9835 9831 9828
9989 9986 9984 9982 9980 9978 9976 9973 9971 9969 9966 9963 9960 9958 9955 9952 9949 9946 9943 9939 9936 9932 9929 9926 9923 9919 9916 9912 9908 9904 9900 9897 9893 9890 9886 9883 9879 9876 9872 9868 9865 9862 9858 9855 9850 9847 9843 9839 9835 9832 9828 9825 9821 9818